[[{"header":{"parameterUnit":"m.s-1","parameterCategory":1,"la1":30.2991,"la2":30.254,"lo1":-89.0895,"lo2":-89.0444,"dy":0.0017,"dx":0.0017,"nx":28,"ny":28,"refTime":"2026-02-17T03:00:00:Z","depth":0,"parameterNumber":2,"parameterNumberName":"U-component_of_WINDS"},"data":[0,0,0,0,0,0,0,0,0,0,0,0,0,0,0,0,0,0,0,0,0,0,0,0,0,0,0,0,0,0,0,0,0,0,0,0,0,0,0,0,0,0,0,0,0,0,0,0,0,0,0,0,0,0,0,0,0,0,-0.7541,-0.7541,0,-0.7501,-0.7501,-0.75,-0.7487,-0.7487,-0.7487,-0.7487,-0.7445,-0.7443,-0.7442,0,0,0,0,0,0,0,0,0,0,0,0,0,-0.7605,-0.7604,-0.7541,-0.7541,-0.754,-0.7501,-0.7501,-0.75,-0.7487,-0.7487,-0.7487,-0.7487,-0.7445,-0.7444,-0.7442,0,0,0,0,0,0,0,0,0,0,0,0,0,-0.7572,-0.7603,-0.7541,-0.7529,-0.7527,-0.7501,-0.7501,-0.75,-0.7487,-0.7487,-0.7487,-0.7487,-0.7446,-0.7444,-0.7442,-0.7425,0,0,-0.7436,-0.7435,0,0,0,0,0,0,0,0,-0.7574,-0.757,-0.7531,-0.753,-0.7528,-0.7499,-0.7507,-0.7475,-0.7487,-0.7502,-0.7487,-0.7488,-0.7463,-0.7459,-0.7451,-0.7423,-0.7421,-0.7436,-0.7435,-0.7434,-0.7433,0,0,0,0,0,0,0,-0.7576,-0.7572,-0.7525,-0.7531,-0.7529,-0.7525,-0.7521,-0.7501,-0.7481,-0.7501,-0.75,-0.7495,-0.7462,-0.7453,-0.745,-0.742,-0.7436,-0.7434,-0.7433,-0.7432,-0.7376,-0.7376,0,0,0,0,0,0,-0.7581,-0.7574,-0.7526,-0.7524,-0.7552,-0.7524,-0.7519,-0.7508,-0.7481,-0.7478,-0.7495,-0.7495,-0.7456,-0.7452,-0.7448,-0.7427,-0.7434,-0.7432,-0.7431,-0.7377,-0.7376,-0.7376,0,0,0,0,0,0,-0.7582,-0.7577,-0.7528,-0.7548,-0.7542,-0.7522,-0.751,-0.7507,-0.7498,-0.7477,-0.7473,-0.749,-0.7456,-0.7451,-0.7431,-0.7425,-0.7431,-0.7429,-0.7377,-0.7376,-0.7376,-0.7383,0,0,0,0,0,0,-0.7584,-0.7577,-0.7571,-0.7548,-0.7541,-0.7511,-0.751,-0.7506,-0.7495,-0.7495,-0.7471,-0.7468,-0.7456,-0.7434,-0.7429,-0.7422,-0.7428,-0.7377,-0.7377,-0.7376,-0.7383,-0.7383,-0.7382,0,0,0,0,0,-0.7587,-0.7574,-0.7571,-0.7565,-0.7532,-0.7511,-0.7507,-0.7494,-0.7495,-0.7488,-0.7475,-0.7468,-0.7427,-0.7432,-0.7426,-0.7419,-0.7378,-0.7377,-0.7376,-0.7383,-0.7383,-0.7382,0,0,0,0,0,0,-0.7595,-0.7571,-0.7567,-0.7547,-0.7531,-0.7509,-0.75,-0.7494,-0.7477,-0.7477,-0.7462,-0.7457,-0.7438,-0.7426,-0.7433,-0.7401,-0.7402,-0.74,-0.7409,-0.7408,-0.7408,-0.7411,-0.7426,0,0,0,0,0,-0.7595,-0.758,-0.7559,-0.7544,-0.7536,-0.7519,-0.751,-0.7501,-0.7484,-0.7478,-0.7463,-0.7446,-0.7429,-0.7418,-0.7402,-0.7382,-0.7376,-0.7374,-0.7374,-0.7374,-0.7372,-0.7361,-0.7359,-0.7373,-0.7373,-0.7373,0,0,-0.7594,-0.7579,-0.757,-0.7545,-0.7532,-0.7517,-0.7514,-0.7498,-0.7486,-0.7475,-0.7455,-0.7444,-0.7424,-0.7404,-0.7394,-0.7394,-0.7367,-0.7373,-0.7373,-0.7371,-0.736,-0.7358,-0.7357,-0.7373,-0.7373,-0.7373,0,0,-0.7584,-0.7572,-0.7557,-0.7544,-0.7525,-0.7514,-0.7511,-0.749,-0.7482,-0.7462,-0.7453,-0.7439,-0.7411,-0.7397,-0.7387,-0.7373,-0.7367,-0.7368,-0.7366,-0.7355,-0.7354,-0.7353,-0.7348,-0.7346,-0.7367,-0.7367,-0.7367,0,-0.7585,-0.7562,-0.755,-0.7534,-0.7524,-0.7514,-0.7499,-0.7487,-0.7463,-0.7456,-0.7456,-0.742,-0.7407,-0.7383,-0.738,-0.7372,-0.7368,-0.737,-0.7355,-0.7354,-0.7353,-0.7348,-0.7346,-0.7367,-0.7367,-0.7367,-0.7367,0,-0.7564,-0.7548,-0.7539,-0.7517,-0.7505,-0.749,-0.7475,-0.7465,-0.7458,-0.7447,-0.7427,-0.741,-0.739,-0.7384,-0.7377,-0.736,-0.736,-0.7358,-0.7358,-0.7352,-0.7347,-0.7345,-0.7367,-0.7367,-0.7367,-0.7367,0,0,-0.7557,-0.753,-0.7526,-0.7516,-0.7495,-0.7482,-0.7467,-0.7448,-0.7439,-0.7423,-0.741,-0.7386,-0.7384,-0.7373,-0.7364,-0.7355,-0.7345,-0.7353,-0.7353,-0.7352,-0.7325,-0.7326,-0.7324,-0.7341,-0.7341,-0.734,-0.7326,0,-0.7544,-0.7516,-0.7506,-0.7483,-0.7468,-0.7459,-0.7446,-0.7431,-0.7421,-0.7407,-0.7395,-0.7379,-0.7378,-0.737,-0.7361,-0.7348,-0.7339,-0.7349,-0.7328,-0.7327,-0.7332,-0.7322,-0.7323,-0.731,-0.7324,-0.7324,-0.7324,0,-0.7525,-0.7509,-0.7485,-0.7466,-0.746,-0.7448,-0.743,-0.7416,-0.74,-0.7393,-0.7381,-0.7373,-0.7356,-0.7359,-0.7335,-0.7343,-0.7334,-0.7326,-0.7325,-0.7322,-0.7324,-0.7317,-0.7306,-0.7304,-0.7321,-0.7321,-0.7321,0,-0.7521,-0.7495,-0.7477,-0.7469,-0.7446,-0.7438,-0.7428,-0.7412,-0.7402,-0.7386,-0.7379,-0.7362,-0.7352,-0.7339,-0.7327,-0.733,-0.7305,-0.7306,-0.7298,-0.7299,-0.7292,-0.7293,-0.7278,-0.7288,-0.7288,-0.7288,-0.7288,0,-0.7507,-0.7493,-0.7475,-0.7464,-0.7448,-0.7436,-0.742,-0.7409,-0.7395,-0.7382,-0.7374,-0.7361,-0.7347,-0.7332,-0.7323,-0.7305,-0.7301,-0.7295,-0.7292,-0.7295,-0.7296,-0.7288,-0.7288,-0.7288,-0.7288,-0.7288,-0.7288,0,-0.75,-0.7488,-0.7468,-0.7449,-0.7444,-0.7432,-0.7416,-0.7405,-0.7395,-0.7378,-0.7374,-0.7358,-0.7341,-0.7328,-0.7305,-0.7299,-0.728,-0.7278,-0.7286,-0.7284,-0.7277,-0.7278,-0.7256,-0.7253,-0.7266,-0.7266,-0.7266,0,-0.7491,-0.748,-0.746,-0.7451,-0.7441,-0.7426,-0.7416,-0.7404,-0.7393,-0.7374,-0.7366,-0.7348,-0.7333,-0.7307,-0.7293,-0.7276,-0.7273,-0.7267,-0.727,-0.7273,-0.7272,-0.7273,-0.7271,-0.7266,-0.7266,-0.7266,-0.7266,0,-0.7477,-0.7472,-0.7457,-0.744,-0.7428,-0.7415,-0.7401,-0.7394,-0.738,-0.7368,-0.7351,-0.734,-0.7318,-0.73,-0.7282,-0.7272,-0.7266,-0.7265,-0.7262,-0.7264,-0.7269,-0.7266,-0.7284,-0.7265,-0.7265,-0.7265,-0.7265,-0.7265,-0.7468,-0.7457,-0.7442,-0.7426,-0.7415,-0.7402,-0.7391,-0.738,-0.7366,-0.7347,-0.7341,-0.7323,-0.7308,-0.7283,-0.7273,-0.7259,-0.7259,-0.7255,-0.7254,-0.7253,-0.7253,-0.7273,-0.7256,-0.7256,-0.7256,-0.7256,-0.7256,0,-0.7452,-0.7442,-0.7428,-0.7409,-0.7397,-0.7394,-0.7378,-0.7368,-0.7353,-0.7339,-0.7325,-0.7306,-0.7289,-0.7275,-0.7258,-0.725,-0.7247,-0.7245,-0.7245,-0.7243,-0.7254,-0.7258,-0.7248,-0.7248,-0.7248,-0.7248,-0.7248,-0.7248,-0.7442,-0.7425,-0.7418,-0.7395,-0.7385,-0.7367,-0.7359,-0.7348,-0.7337,-0.7315,-0.7302,-0.7293,-0.7279,-0.7261,-0.7246,-0.7243,-0.7236,-0.7236,-0.7231,-0.7241,-0.7242,-0.7243,-0.7247,-0.7235,-0.7235,-0.7221,-0.7221,-0.7221]},{"header":{"parameterUnit":"m.s-1","parameterCategory":1,"la1":30.2991,"la2":30.254,"lo1":-89.0895,"lo2":-89.0444,"dy":0.0017,"dx":0.0017,"nx":28,"ny":28,"refTime":"2026-02-17T03:00:00:Z","depth":0,"parameterNumber":3,"parameterNumberName":"V-component_of_WINDS"},"data":[0,0,0,0,0,0,0,0,0,0,0,0,0,0,0,0,0,0,0,0,0,0,0,0,0,0,0,0,0,0,0,0,0,0,0,0,0,0,0,0,0,0,0,0,0,0,0,0,0,0,0,0,0,0,0,0,0,0,4.3901,4.3901,0,4.3914,4.3914,4.3915,4.3874,4.3873,4.3872,4.387,4.3883,4.3884,4.3886,0,0,0,0,0,0,0,0,0,0,0,0,0,4.3837,4.3839,4.3901,4.3901,4.3901,4.3914,4.3914,4.3915,4.3874,4.3873,4.3871,4.387,4.3882,4.3884,4.3886,0,0,0,0,0,0,0,0,0,0,0,0,0,4.3859,4.3839,4.3901,4.3883,4.3881,4.3914,4.3914,4.3915,4.3875,4.3873,4.3871,4.3869,4.3882,4.3884,4.3886,4.3937,0,0,4.3893,4.3894,0,0,0,0,0,0,0,0,4.3858,4.3862,4.3885,4.3884,4.3882,4.3891,4.3897,4.3922,4.3875,4.3877,4.387,4.3868,4.3887,4.3888,4.3895,4.3937,4.3938,4.3893,4.3894,4.3895,4.3896,0,0,0,0,0,0,0,4.3857,4.3861,4.3906,4.3885,4.3884,4.3873,4.3874,4.3901,4.3892,4.3877,4.3874,4.3876,4.3886,4.3893,4.3895,4.3938,4.3893,4.3895,4.3896,4.3897,4.4022,4.4024,0,0,0,0,0,0,4.3858,4.386,4.3906,4.3906,4.3865,4.3876,4.3877,4.389,4.3892,4.389,4.3878,4.3874,4.389,4.3892,4.3895,4.3955,4.3895,4.3897,4.3898,4.402,4.4023,4.4025,0,0,0,0,0,0,4.3857,4.3862,4.3905,4.3882,4.3887,4.3879,4.3894,4.3891,4.3898,4.3892,4.389,4.3887,4.3889,4.3892,4.3927,4.3955,4.3898,4.39,4.4018,4.4021,4.4024,4.4074,0,0,0,0,0,0,4.3855,4.3862,4.3882,4.3883,4.3888,4.3937,4.3895,4.3893,4.3903,4.3898,4.3901,4.3899,4.3887,4.3924,4.3929,4.3957,4.3902,4.4015,4.4019,4.4023,4.407,4.4079,4.4086,0,0,0,0,0,4.3853,4.3895,4.3883,4.3889,4.3913,4.3939,4.3942,4.3928,4.3905,4.3924,4.392,4.3899,4.3951,4.3928,4.3933,4.3962,4.4013,4.4018,4.4022,4.4067,4.4077,4.4086,0,0,0,0,0,0,4.3897,4.3895,4.3882,4.3926,4.3933,4.3932,4.3956,4.3939,4.3953,4.3948,4.3929,4.393,4.3968,4.3968,4.3943,4.4011,4.3978,4.3984,4.401,4.402,4.4027,4.4027,4.3904,0,0,0,0,0,4.3912,4.3934,4.3931,4.397,4.3974,4.3965,4.3975,4.3964,4.397,4.3973,4.3971,4.3978,4.3995,4.4007,4.4023,4.407,4.407,4.4092,4.41,4.4107,4.4112,4.4137,4.4147,4.4039,4.4039,4.4039,0,0,4.3943,4.3945,4.3959,4.3979,4.3983,4.4005,4.3967,4.3993,4.4009,4.3976,4.4009,4.4009,4.4014,4.4055,4.4073,4.4057,4.4142,4.4112,4.4118,4.412,4.4142,4.4153,4.4162,4.4042,4.4042,4.4041,0,0,4.4011,4.4015,4.4048,4.4053,4.406,4.4053,4.4061,4.4063,4.4061,4.4094,4.407,4.4088,4.4119,4.4124,4.4131,4.42,4.4181,4.4206,4.4247,4.4272,4.428,4.4288,4.4313,4.4322,4.4211,4.4211,4.4211,0,4.4049,4.4082,4.4067,4.4094,4.4103,4.4075,4.4108,4.4113,4.4125,4.4131,4.4112,4.415,4.4152,4.4194,4.4211,4.4217,4.4225,4.4206,4.428,4.4288,4.4294,4.4318,4.4327,4.4214,4.4214,4.4213,4.4213,0,4.4128,4.4152,4.4177,4.419,4.4202,4.4232,4.422,4.4234,4.4221,4.4216,4.425,4.4251,4.4266,4.4275,4.4263,4.4315,4.4305,4.4283,4.425,4.4308,4.433,4.4338,4.4218,4.4217,4.4216,4.4216,0,0,4.4225,4.4229,4.4239,4.4244,4.4249,4.4266,4.4295,4.431,4.4322,4.4331,4.4354,4.438,4.4361,4.4368,4.4356,4.4377,4.4432,4.4353,4.4353,4.4368,4.449,4.4507,4.4517,4.4419,4.4421,4.4422,4.449,0,4.4293,4.4342,4.4329,4.4378,4.4399,4.4372,4.4397,4.4402,4.4398,4.4415,4.441,4.4429,4.4402,4.4406,4.4426,4.4422,4.4457,4.4416,4.4441,4.4442,4.4441,4.4529,4.4546,4.461,4.4498,4.45,4.4501,0,4.4379,4.4391,4.4442,4.4444,4.4452,4.4475,4.4488,4.4504,4.451,4.4505,4.4514,4.4497,4.4524,4.449,4.4527,4.45,4.4509,4.4508,4.451,4.4513,4.4475,4.4534,4.463,4.464,4.4514,4.4513,4.4512,0,4.4445,4.4474,4.4509,4.4514,4.4516,4.4533,4.4534,4.4538,4.4548,4.4559,4.4566,4.4579,4.4587,4.4598,4.4586,4.4562,4.4625,4.459,4.4621,4.4622,4.4636,4.4636,4.4736,4.4641,4.4641,4.4641,4.4641,0,4.4522,4.4555,4.4539,4.456,4.4595,4.4579,4.4614,4.4613,4.4616,4.4636,4.4613,4.4632,4.4614,4.4632,4.4622,4.4654,4.4658,4.4655,4.4652,4.4657,4.4658,4.4663,4.4659,4.4644,4.4643,4.4642,4.4642,0,4.4602,4.4593,4.4629,4.4628,4.4629,4.4655,4.4654,4.4673,4.4667,4.4693,4.4698,4.4689,4.4708,4.4696,4.4716,4.4709,4.4751,4.4742,4.475,4.4747,4.478,4.4777,4.4888,4.4901,4.4798,4.4799,4.4799,0,4.4653,4.4677,4.4679,4.4691,4.4695,4.4714,4.4724,4.4709,4.472,4.4728,4.4747,4.4764,4.4777,4.4809,4.4803,4.4818,4.4809,4.4847,4.4811,4.4816,4.481,4.4809,4.4812,4.4854,4.4855,4.4856,4.4857,0,4.4743,4.4737,4.4753,4.4768,4.4781,4.4791,4.48,4.4811,4.4795,4.4809,4.4829,4.4839,4.4859,4.4877,4.4889,4.489,4.4871,4.4868,4.4876,4.4883,4.4886,4.4885,4.477,4.4866,4.4865,4.4864,4.4864,4.4864,4.481,4.4831,4.4835,4.4854,4.4859,4.4867,4.4885,4.4882,4.4898,4.4913,4.4903,4.4926,4.493,4.4944,4.4948,4.4965,4.495,4.4962,4.4965,4.4968,4.4973,4.4883,4.4967,4.4967,4.4967,4.4967,4.4966,0,4.49,4.4901,4.4918,4.4931,4.4946,4.4927,4.4935,4.4949,4.4969,4.4975,4.4988,4.5011,4.5027,4.5023,4.5038,4.5053,4.5045,4.5057,4.5056,4.5057,4.4986,4.4977,4.5064,4.5064,4.5064,4.5064,4.5064,4.5064,4.4948,4.4982,4.4976,4.5012,4.5013,4.5036,4.5042,4.505,4.5054,4.508,4.5094,4.5091,4.5093,4.5107,4.5122,4.512,4.5127,4.5143,4.5138,4.5071,4.5062,4.5053,4.5045,4.5144,4.5144,4.5208,4.5208,4.5209]}]]